Regional Weather Roundup
Issued by NWS Little Rock, AR

Home | Current Version | Previous Version | Graphics & Text | Print | Product List | Glossary On
Versions: 1 2 3 4 5 6 7 8 9 10 11 12 13 14 15 16 17 18 19 20 21 22 23 24 25 26 27
000
ASUS44 KLZK 191405
RWRLZK

WEATHER ROUNDUP FOR ARKANSAS
NATIONAL WEATHER SERVICE LITTLE ROCK AR
900 AM CDT SAT APR 19 2014

NOTE: "FAIR" INDICATES FEW OR NO CLOUDS BELOW 12,000 FEET WITH NO
SIGNIFICANT WEATHER AND/OR OBSTRUCTIONS TO VISIBILITY.

ARZ001-003-010-029-191500-
NORTHWEST ARKANSAS

CITY           SKY/WX    TMP DP  RH WIND       PRES   REMARKS
FAYETTEVILLE   MOSUNNY   55  47  74 CALM      30.24R
FORT SMITH     MOSUNNY   59  50  72 NE7       30.23R
HARRISON       SUNNY     59  46  62 SE5       30.26R
BENTONVILLE    MOSUNNY   61  46  59 S6        30.25R
ROGERS         SUNNY     59  47  64 E9        30.25R
SILOAM SPGS    MOSUNNY   61  45  55 SE6       30.24R
HIGHFILL       MOSUNNY   58  47  66 CALM      30.23R
SPRINGDALE     SUNNY     57  46  67 SE5       30.25R
$$

ARZ004-005-016-191500-
NORTH CENTRAL ARKANSAS

CITY           SKY/WX    TMP DP  RH WIND       PRES   REMARKS
BATESVILLE     SUNNY     57  48  72 CALM      30.25S
FLIPPIN        SUNNY     55  43  62 CALM      30.26S
MTN HOME       SUNNY     60  42  51 E7        30.25R
$$

ARZ040-041-191500-
WEST CENTRAL ARKANSAS

CITY           SKY/WX    TMP DP  RH WIND       PRES   REMARKS
MENA           MOSUNNY   57  52  82 CALM      30.24R
MOUNT IDA      SUNNY     55  48  77 CALM      30.21R
$$

ARZ009-017-025-026-028-191500-
NORTHEAST ARKANSAS

CITY           SKY/WX    TMP DP  RH WIND       PRES   REMARKS
CORNING        FAIR      59  46  63 NE8       30.26R
JONESBORO      SUNNY     62  46  55 E6        30.24R
NEWPORT        SUNNY     58  48  69 CALM      30.26R
WALNUT RIDGE   SUNNY     59  48  67 NE5       30.25S
BLYTHEVILLE    SUNNY     63  50  62 NE6       30.24R
$$

ARZ022-023-033-042-044-191500-
CENTRAL ARKANSAS

CITY           SKY/WX    TMP DP  RH WIND       PRES   REMARKS
LITTLE ROCK    MOSUNNY   63  53  70 CALM      30.23S
N LITTLE ROCK  MOSUNNY   64  55  74 E5        30.23S
JACKSONVILLE   SUNNY     62  53  72 E6        30.23S
SEARCY         SUNNY     61  51  69 N5        30.25S
HOT SPRINGS    SUNNY     59  51  75 CALM      30.23R
RUSSELLVILLE   SUNNY     59  50  72 CALM      30.23R
CLINTON        FAIR      55  50  82 CALM      30.25S
$$

ARZ036-191500-
EAST ARKANSAS

CITY           SKY/WX    TMP DP  RH WIND       PRES   REMARKS
WEST MEMPHIS   SUNNY     63  54  72 NW3       30.22R
$$

ARZ050-053-066-070-073-191500-
SOUTHWEST ARKANSAS

CITY           SKY/WX    TMP DP  RH WIND       PRES   REMARKS
ARKADELPHIA    FAIR      60  53  77 CALM      30.24R
CAMDEN         SUNNY     57  52  82 MISG      30.23R
TEXARKANA      SUNNY     61  53  75 CALM      30.22R
EL DORADO      SUNNY     60  56  86 S3        30.22R
DE QUEEN       SUNNY     58  52  80 CALM      30.21R
$$

ARZ056-057-069-191500-
SOUTHEAST ARKANSAS

CITY           SKY/WX    TMP DP  RH WIND       PRES   REMARKS
PINE BLUFF     SUNNY     62  54  74 CALM      30.22S
STUTTGART      SUNNY     63  55  77 NE8       30.24S
MONTICELLO     SUNNY     63  55  75 CALM      30.21S

$$





USA.gov is the U.S. government's official web portal to all federal, state and local government web resources and services.